Temperature
8 8 8 9 10 11 12 12 12 12 12 11 11 11 12 12 11 11 11 11 11 10 10 10 11 11 11 11 11 11 11 11 11 11 11 11 11 11 11 11 11 11 11 11
7 8 9 10 10 9 10 10 11 11 10 10 11 11 11 12 11 11 11 11 11 10 10 10 10 11 11 11 11 11 11 11 11 11 11 11 11 11 11 11 11 11 11 11
7 8 9 9 8 8 9 9 10 10 10 10 10 11 11 11 11 10 10 10 10 9 9 9 10 10 11 11 11 11 11 11 11 10 10 10 10 10 10 10 10 10 10 10
7 8 8 8 8 8 8 9 10 9 9 10 10 11 12 11 11 10 10 10 9 9 9 9 9 10 10 10 10 11 10 10 10 10 10 10 10 10 10 10 10 10 10 10
6 7 7 7 8 8 8 9 9 9 9 9 10 10 11 10 10 10 10 9 9 8 8 8 9 9 10 10 10 10 10 10 10 10 10 10 10 9 9 9 9 9 9 10
6 6 6 7 8 8 7 8 8 8 8 8 10 10 11 10 10 10 10 8 8 7 7 7 8 8 9 9 9 9 10 10 10 10 9 9 9 9 9 9 9 9 9 9
5 5 5 6 6 7 7 7 7 7 7 9 10 9 10 10 9 9 9 8 7 6 6 6 7 7 8 8 9 9 9 9 9 9 9 9 9 9 9 9 9 9 9 9
3 5 5 5 6 6 6 7 8 8 9 9 9 9 9 8 8 7 6 6 6 5 5 5 6 6 7 8 8 8 8 8 9 9 9 9 8 8 8 8 8 8 8 8
3 4 5 5 5 6 6 6 7 8 8 8 8 8 8 7 7 6 6 6 5 5 4 4 5 6 6 7 7 7 8 7 8 8 8 8 8 8 8 8 8 8 8 8
1 2 4 4 5 5 6 6 6 6 7 7 8 8 9 7 6 6 6 6 5 4 4 4 4 5 6 6 6 7 7 7 7 7 7 8 7 7 7 7 7 7 7 7
1 1 2 3 3 4 4 5 5 6 7 7 8 8 7 7 6 6 6 5 4 4 3 3 4 4 5 5 5 6 6 6 6 7 7 7 7 7 7 7 7 7 7 7
0 0 1 2 3 3 4 4 4 5 5 6 7 7 5 6 5 5 4 4 3 3 2 2 3 3 4 4 5 5 5 5 6 6 6 6 6 6 6 6 6 6 6 6
-0 -0 1 2 2 2 2 2 3 3 4 5 6 6 5 5 4 3 3 3 2 2 2 2 2 3 3 4 4 4 5 5 5 5 5 5 5 6 6 6 6 6 6 6
-1 -1 -1 1 1 1 1 1 2 2 3 4 5 5 4 4 3 3 2 1 1 1 1 1 2 2 2 3 3 4 4 4 5 5 5 5 5 5 5 6 6 5 5 5
-1 -1 -2 -1 -0 -0 -0 0 1 1 2 3 4 4 3 3 2 2 1 1 0 0 0 1 1 1 2 2 3 3 3 4 4 4 4 4 4 4 5 5 5 5 5 5
-2 -2 -2 -1 -1 -0 -1 -0 0 0 1 2 2 2 2 1 1 1 0 0 -0 -0 -0 -0 0 1 1 2 2 2 2 3 3 3 4 4 4 4 4 4 4 4 4 4
-3 -3 -2 -1 -1 -0 -1 -1 -1 -1 -0 0 1 0 -0 0 -0 -0 -1 -1 -1 -1 -1 -1 -0 0 1 1 1 2 2 2 2 2 3 3 3 3 3 4 4 4 4 4
-3 -3 -2 -2 -1 -2 -2 -2 -2 -1 -1 -1 -1 -1 -1 -1 -1 -1 -2 -1 -2 -2 -2 -1 -1 -0 0 1 1 1 1 2 2 2 2 2 3 3 3 3 3 3 3 3
-3 -3 -3 -2 -2 -2 -2 -3 -3 -2 -2 -2 -2 -2 -2 -2 -2 -1 -2 -2 -2 -2 -2 -2 -1 -1 -0 0 0 1 1 1 1 1 2 2 2 2 2 2 2 2 2 2
-3 -3 -3 -3 -3 -3 -3 -3 -3 -2 -2 -3 -3 -3 -3 -3 -1 -1 -3 -3 -3 -3 -2 -2 -1 -1 -1 -0 -0 0 0 1 1 1 1 1 1 2 2 2 2 2 2 2
-4 -4 -4 -4 -3 -3 -4 -4 -3 -3 -3 -4 -4 -4 -4 -3 -3 -4 -4 -4 -3 -3 -3 -2 -2 -1 -1 -1 -1 -0 -0 0 0 0 1 1 1 1 1 1 1 1 1 1
-5 -4 -5 -4 -4 -4 -5 -4 -4 -4 -5 -5 -5 -5 -5 -5 -5 -5 -5 -4 -4 -3 -3 -2 -2 -2 -2 -2 -1 -1 -1 -1 -1 -0 -0 0 0 0 0 0 0 1 1 1
-5 -5 -5 -5 -5 -5 -5 -5 -6 -6 -6 -6 -6 -6 -6 -6 -6 -5 -5 -5 -4 -4 -3 -3 -3 -2 -2 -2 -2 -2 -2 -2 -1 -1 -1 -1 -1 -0 -0 -0 -0 -0 -0 -0
-6 -6 -6 -5 -5 -6 -6 -6 -6 -7 -7 -7 -7 -7 -7 -6 -6 -6 -6 -5 -5 -5 -4 -4 -3 -3 -3 -3 -3 -3 -3 -2 -2 -1 -1 -1 -1 -1 -1 -1 -1 -1 -1 -1
-7 -6 -6 -6 -6 -6 -7 -7 -7 -7 -7 -7 -7 -7 -7 -7 -7 -6 -6 -6 -6 -5 -5 -5 -4 -4 -4 -4 -3 -3 -3 -3 -2 -2 -2 -2 -2 -2 -2 -2 -2 -1 -1 -1
-8 -7 -7 -6 -7 -7 -7 -8 -8 -8 -8 -8 -8 -7 -7 -7 -7 -7 -6 -6 -6 -6 -5 -5 -5 -4 -4 -4 -4 -4 -3 -3 -3 -3 -3 -3 -3 -3 -3 -2 -2 -2 -2 -2
Wind_Speed
9 11 17 20 21 17 12 14 16 12 7 10 15 16 14 11 10 11 11 10 11 11 9 8 8 8 8 8 8 9 8 8 7 6 6 5 5 5 4 4 5 6 6 7
8 17 20 16 16 17 15 15 15 9 6 8 11 15 14 13 13 12 12 12 11 9 8 7 7 8 9 9 9 9 9 9 9 7 6 5 5 4 5 4 5 6 6 7
16 11 11 14 16 18 19 19 16 10 6 8 8 12 13 11 11 11 11 11 10 9 8 7 7 8 9 9 10 9 10 9 9 8 6 5 4 3 4 5 5 5 6 7
13 12 9 14 17 17 18 17 15 12 9 8 8 9 9 9 9 9 10 9 8 7 7 7 7 7 8 8 8 9 9 9 9 9 8 9 7 6 7 6 5 5 6 7
8 8 11 13 15 16 10 9 14 14 13 10 10 9 7 6 8 8 7 7 6 6 6 5 5 6 6 6 7 8 8 9 9 10 10 10 8 7 6 6 6 6 5 6
10 5 7 11 11 12 7 6 7 9 9 13 16 13 9 7 8 6 4 4 3 3 3 3 2 3 3 4 5 6 8 8 9 10 10 11 10 9 8 7 7 6 5 5
7 7 4 3 5 10 9 7 7 9 10 12 12 11 8 3 3 4 3 2 1 1 2 2 2 2 2 3 4 6 7 8 8 9 10 10 10 10 9 8 8 7 5 5
6 6 5 3 7 8 14 13 10 9 10 8 9 11 4 1 0 1 0 0 1 1 1 1 1 1 2 2 3 5 7 7 8 9 9 9 9 8 7 8 7 7 6 5
5 6 4 4 5 6 9 12 10 6 4 6 7 5 3 1 2 2 2 2 2 2 1 1 1 0 1 2 2 3 5 6 7 8 8 8 8 8 7 7 7 6 5 5
5 7 6 4 3 5 5 7 6 7 7 8 8 9 5 4 2 2 2 3 3 3 3 2 1 1 1 1 1 2 3 4 5 7 7 6 7 8 7 7 7 7 7 6
5 5 5 2 3 5 4 6 5 7 7 7 7 4 1 2 2 1 1 3 4 4 3 2 2 1 2 2 2 1 1 2 3 5 6 6 6 7 7 7 7 7 6 7
4 4 5 5 4 4 5 5 5 7 6 8 7 3 3 3 3 2 3 4 5 5 4 2 2 2 2 2 1 1 1 1 2 4 5 5 6 6 7 7 7 7 7 6
4 3 4 2 2 0 2 2 4 5 5 7 9 5 1 4 4 4 4 4 5 5 5 3 2 2 2 1 1 0 1 1 2 3 4 5 6 6 7 7 7 7 7 6
5 3 4 5 4 3 4 5 4 4 5 7 8 6 4 4 5 5 5 5 4 5 5 4 3 2 2 2 1 1 1 1 1 3 4 4 5 6 6 7 7 7 7 7
4 4 5 7 8 5 5 5 4 4 6 6 5 5 5 5 6 5 4 4 5 6 6 6 4 3 3 2 2 2 2 1 2 3 3 3 4 5 6 6 6 6 7 7
3 3 4 5 4 3 4 6 3 3 5 6 5 5 5 6 6 6 5 5 6 7 7 7 5 4 4 3 3 2 2 2 2 2 3 3 3 4 5 5 6 6 6 6
3 3 3 3 5 2 2 4 3 2 4 3 4 4 6 6 6 6 6 6 7 7 7 8 7 6 5 4 3 2 2 1 2 2 2 3 3 3 4 5 6 6 6 6
3 3 2 2 2 1 2 4 5 2 5 5 5 6 7 7 6 6 5 6 7 8 9 9 8 7 6 4 3 2 1 1 2 2 2 3 3 3 3 4 5 5 5 5
3 2 1 1 1 1 2 5 7 5 4 7 8 9 10 9 5 4 7 9 9 9 9 9 8 7 5 4 3 2 1 2 2 2 2 3 3 4 4 4 4 5 5 5
2 0 0 1 1 1 4 10 11 4 2 8 10 10 9 8 5 6 10 11 10 10 8 8 7 6 4 3 2 2 2 2 2 2 2 2 3 4 4 4 4 4 4 5
3 2 1 1 1 1 7 12 7 1 5 11 10 9 8 6 6 9 11 11 10 9 8 7 6 4 4 2 1 2 1 2 2 1 2 2 3 3 4 4 3 4 5 5
4 3 2 1 1 2 9 8 5 6 9 9 9 9 9 9 9 9 10 10 10 9 8 7 5 4 3 1 1 1 1 1 1 2 3 3 3 3 3 4 3 4 5 5
2 3 2 1 1 4 7 6 6 7 8 9 9 10 9 9 9 10 10 9 9 8 7 6 5 4 3 2 1 0 1 1 2 3 3 3 3 2 3 4 4 4 4 4
4 4 1 1 3 6 8 8 9 8 9 10 10 9 9 8 9 10 9 8 8 7 6 5 4 4 4 3 2 1 0 1 3 3 3 3 3 2 2 3 3 4 4 4
5 4 2 2 5 7 7 10 11 11 11 10 10 10 9 9 9 9 8 8 8 7 6 5 4 4 4 3 3 2 1 2 3 3 2 2 2 2 2 2 2 2 3 4
4 3 3 3 6 6 8 11 12 11 11 11 11 11 10 9 9 9 8 7 7 7 6 5 5 5 4 4 3 3 2 1 2 2 2 2 2 2 2 2 2 2 2 2
Wind_Direction
200 208 216 215 215 230 234 229 233 233 210 215 232 244 249 247 244 244 243 241 236 233 233 224 214 207 204 203 200 196 193 192 186 184 186 188 195 195 198 198 197 198 197 196
208 225 229 227 223 226 229 232 237 239 218 223 244 252 254 249 244 245 245 241 237 232 226 216 206 199 198 199 199 197 195 190 187 187 186 190 191 198 199 192 194 197 196 196
220 233 228 221 218 221 226 229 231 234 226 230 250 257 242 240 236 240 243 243 240 232 225 215 202 200 196 197 197 196 195 192 190 186 179 169 171 184 194 196 199 201 198 196
236 240 222 220 224 223 233 230 233 226 220 228 221 256 240 226 229 232 237 237 237 232 225 216 202 197 198 198 194 194 193 191 189 185 184 182 184 191 202 201 199 196 194 195
238 237 227 227 227 220 234 225 224 225 229 240 226 243 250 209 227 233 235 233 231 228 217 209 203 200 200 196 192 193 191 190 189 188 190 192 197 198 193 191 193 195 193 191
254 256 241 237 237 218 210 188 203 218 222 233 227 226 251 218 229 228 225 221 222 212 195 189 184 180 189 186 187 189 189 191 190 192 193 195 195 192 185 187 191 194 191 188
266 245 239 257 222 202 201 191 196 203 213 230 211 217 243 228 222 226 227 224 219 175 171 167 168 171 173 180 186 189 192 193 191 193 197 199 198 194 192 192 194 193 191 189
272 259 228 233 223 209 206 206 211 215 220 223 197 218 217 175 189 186 170 74 57 79 101 126 170 183 176 178 186 192 198 198 196 196 198 198 198 197 197 195 194 195 195 193
284 272 285 263 245 217 205 213 228 244 233 221 208 207 221 150 83 93 87 59 35 31 34 39 44 101 154 158 180 195 202 202 200 198 197 198 197 196 193 191 192 193 193 190
314 284 290 280 240 220 231 209 212 215 215 224 219 219 214 175 154 96 67 38 22 15 13 18 22 50 90 113 135 173 192 201 200 196 195 196 197 195 190 187 188 187 187 186
318 280 293 272 221 215 205 202 217 216 230 228 225 214 78 156 134 101 36 21 10 10 7 8 19 46 67 77 96 123 177 186 186 191 193 194 194 192 190 187 188 186 184 184
325 288 279 269 250 273 211 209 211 211 212 226 233 214 66 38 62 58 33 19 14 13 10 22 40 53 59 57 83 119 148 178 188 189 190 193 190 187 187 186 185 184 184 184
322 298 295 260 204 22 233 241 234 233 228 220 224 217 21 18 33 31 21 9 6 11 11 16 30 32 35 29 19 180 177 192 199 189 186 189 190 186 188 187 183 183 180 180
324 280 268 274 302 312 297 285 269 229 222 226 230 238 301 348 1 3 360 359 3 4 4 360 359 358 359 2 349 285 247 231 204 185 183 191 193 189 190 186 182 180 178 179
335 289 276 280 292 298 310 304 271 242 235 229 238 263 295 325 338 342 342 348 351 352 351 346 344 339 339 339 328 301 259 233 207 182 181 190 191 186 183 181 178 177 178 179
332 294 295 282 294 319 332 336 312 281 268 249 262 294 337 340 342 344 343 342 338 335 334 334 332 326 317 311 304 293 270 235 211 189 183 183 178 171 169 172 171 171 175 174
298 282 292 285 306 295 320 341 342 359 346 316 286 317 338 338 340 334 328 330 328 329 328 324 317 311 306 300 290 277 262 223 195 183 173 172 166 158 162 164 164 165 167 168
258 262 268 297 324 200 71 27 354 2 10 5 4 353 341 328 321 331 338 336 331 325 319 314 310 305 300 295 288 275 241 193 169 165 166 166 157 152 149 157 162 164 162 164
246 245 261 267 261 277 6 360 344 316 335 9 360 347 341 335 324 334 349 338 326 318 311 307 302 295 291 287 274 241 211 182 172 178 170 168 160 156 154 157 163 164 161 161
43 20 275 295 279 277 2 343 330 298 316 10 354 343 338 336 318 318 332 327 324 324 319 313 308 302 291 283 250 204 203 189 199 198 177 166 162 163 165 162 158 158 158 160
10 18 358 319 281 331 354 337 335 336 334 334 331 330 329 320 307 310 318 320 324 326 323 320 316 310 299 279 213 193 200 213 213 174 145 140 146 153 157 154 154 151 152 153
4 356 358 342 306 338 352 354 6 333 325 327 329 330 330 326 321 322 323 323 326 330 330 331 331 330 327 315 180 179 211 218 159 132 128 129 129 129 134 134 138 143 146 148
6 342 335 351 338 334 344 350 342 338 336 337 335 330 330 327 327 330 329 327 329 333 335 339 346 352 355 359 47 146 233 170 135 126 124 120 112 118 133 140 144 145 149 154
357 350 339 325 320 334 343 349 351 350 343 337 335 334 336 334 334 335 335 335 337 341 343 347 359 7 3 6 18 36 72 123 123 123 123 124 124 124 129 140 152 158 164 166
340 343 342 317 319 334 347 348 346 345 346 347 347 345 343 342 340 340 338 341 343 343 345 351 358 6 5 8 15 18 33 124 122 116 121 132 135 140 140 141 154 168 179 184
358 338 335 320 326 323 319 334 342 346 348 348 348 349 350 348 343 343 344 345 348 349 353 359 3 6 6 8 11 9 10 84 123 123 130 140 145 146 146 140 109 80 142 144
Height
1469 1469 1462 1459 1462 1461 1461 1461 1461 1463 1468 1471 1468 1467 1467 1470 1471 1471 1471 1472 1473 1474 1476 1477 1479 1480 1483 1485 1487 1490 1492 1495 1497 1499 1501 1503 1506 1508 1509 1511 1513 1515 1517 1519
1465 1460 1456 1461 1463 1465 1463 1462 1461 1464 1469 1469 1465 1464 1464 1465 1466 1467 1467 1467 1468 1470 1472 1473 1474 1476 1478 1480 1483 1486 1488 1491 1493 1496 1498 1501 1503 1505 1506 1508 1510 1512 1514 1516
1456 1453 1457 1459 1461 1462 1461 1460 1460 1463 1467 1467 1466 1459 1457 1458 1461 1462 1463 1463 1464 1466 1467 1468 1470 1471 1473 1476 1478 1481 1484 1487 1490 1493 1495 1497 1499 1501 1503 1504 1506 1508 1510 1512
1455 1454 1456 1456 1455 1457 1456 1457 1460 1463 1464 1460 1463 1453 1448 1452 1455 1457 1458 1459 1460 1461 1463 1464 1465 1467 1469 1472 1475 1477 1480 1483 1486 1489 1491 1493 1495 1496 1499 1501 1503 1505 1507 1509
1453 1453 1453 1452 1451 1454 1454 1457 1459 1461 1460 1459 1458 1457 1444 1449 1451 1451 1453 1455 1456 1458 1459 1460 1462 1464 1466 1469 1471 1474 1477 1480 1482 1485 1487 1490 1492 1494 1496 1498 1500 1502 1504 1506
1453 1454 1454 1451 1451 1454 1456 1458 1459 1459 1459 1458 1448 1451 1441 1444 1445 1447 1451 1453 1454 1455 1456 1457 1459 1461 1463 1465 1467 1470 1473 1475 1478 1481 1483 1485 1488 1490 1493 1495 1496 1499 1500 1502
1453 1451 1452 1452 1450 1451 1453 1453 1455 1455 1452 1442 1439 1445 1441 1443 1445 1447 1449 1451 1452 1453 1454 1455 1456 1458 1459 1461 1464 1466 1469 1471 1474 1476 1479 1481 1484 1486 1489 1491 1493 1495 1497 1499
1455 1449 1450 1451 1449 1447 1447 1446 1442 1440 1435 1432 1441 1439 1440 1445 1447 1448 1450 1451 1451 1452 1452 1453 1454 1455 1457 1458 1460 1462 1465 1467 1469 1472 1474 1477 1480 1483 1485 1488 1490 1492 1494 1496
1459 1451 1449 1450 1449 1448 1446 1445 1442 1441 1437 1437 1435 1438 1444 1446 1447 1448 1449 1450 1450 1451 1451 1452 1452 1453 1455 1456 1457 1459 1461 1463 1465 1468 1471 1473 1476 1479 1481 1484 1486 1488 1490 1492
1468 1460 1451 1450 1449 1447 1446 1444 1445 1443 1439 1433 1429 1432 1433 1442 1445 1447 1449 1450 1450 1451 1450 1450 1451 1451 1453 1454 1455 1457 1458 1460 1462 1464 1467 1470 1472 1475 1478 1480 1482 1484 1487 1489
1470 1465 1454 1450 1448 1446 1448 1447 1444 1439 1435 1429 1429 1433 1440 1442 1446 1448 1449 1450 1451 1451 1450 1450 1450 1450 1451 1452 1453 1455 1456 1457 1459 1461 1463 1466 1469 1471 1474 1476 1479 1481 1483 1486
1470 1466 1456 1451 1450 1450 1447 1447 1446 1442 1439 1434 1429 1440 1445 1445 1447 1449 1450 1451 1451 1451 1450 1450 1449 1449 1450 1451 1452 1453 1454 1455 1457 1458 1461 1463 1465 1468 1470 1472 1475 1478 1480 1483
1471 1467 1457 1448 1451 1452 1451 1450 1449 1447 1442 1437 1435 1442 1446 1447 1449 1451 1452 1452 1451 1451 1450 1449 1449 1449 1449 1450 1450 1451 1452 1453 1455 1456 1458 1460 1462 1464 1466 1469 1472 1474 1477 1479
1472 1469 1466 1456 1452 1455 1455 1453 1451 1450 1445 1440 1438 1441 1447 1449 1450 1452 1452 1452 1452 1451 1450 1449 1448 1448 1448 1448 1449 1449 1450 1451 1452 1454 1455 1457 1458 1460 1463 1465 1468 1470 1473 1476
1473 1469 1467 1463 1460 1458 1457 1455 1453 1452 1448 1446 1444 1445 1449 1451 1453 1453 1453 1452 1451 1450 1449 1448 1448 1447 1447 1447 1447 1448 1448 1449 1450 1451 1452 1454 1456 1457 1459 1462 1464 1467 1470 1472
1474 1472 1468 1463 1459 1457 1458 1458 1456 1454 1453 1450 1450 1453 1455 1456 1455 1454 1453 1452 1451 1450 1449 1448 1447 1446 1446 1445 1445 1445 1445 1446 1447 1448 1449 1451 1453 1454 1456 1458 1461 1464 1466 1469
1474 1473 1467 1459 1458 1455 1459 1463 1461 1459 1459 1456 1453 1458 1458 1457 1456 1456 1454 1453 1451 1450 1448 1447 1445 1444 1443 1443 1443 1443 1443 1444 1445 1446 1447 1448 1450 1451 1453 1455 1457 1460 1463 1466
1474 1472 1468 1461 1460 1463 1466 1467 1465 1463 1462 1462 1461 1461 1459 1458 1457 1455 1454 1452 1451 1449 1447 1445 1444 1443 1442 1441 1441 1441 1441 1441 1442 1443 1444 1446 1447 1449 1451 1453 1455 1457 1460 1463
1473 1472 1467 1464 1461 1462 1465 1468 1468 1465 1462 1464 1463 1461 1460 1457 1454 1453 1453 1452 1450 1448 1446 1443 1441 1440 1439 1439 1439 1439 1439 1439 1440 1441 1442 1444 1445 1447 1449 1451 1453 1455 1458 1460
1474 1473 1470 1468 1465 1466 1471 1471 1468 1466 1462 1466 1465 1463 1461 1458 1454 1452 1452 1450 1447 1445 1443 1440 1438 1437 1436 1436 1436 1436 1436 1437 1438 1439 1440 1442 1443 1445 1447 1449 1451 1453 1455 1458
1476 1475 1475 1472 1470 1470 1476 1473 1468 1467 1468 1468 1466 1464 1461 1459 1458 1455 1451 1448 1445 1442 1440 1438 1435 1434 1433 1433 1433 1433 1434 1435 1436 1437 1438 1440 1441 1443 1445 1447 1449 1451 1453 1455
1482 1479 1478 1476 1475 1478 1478 1474 1474 1474 1471 1468 1466 1463 1461 1458 1455 1452 1449 1445 1443 1440 1437 1435 1433 1432 1431 1431 1431 1431 1432 1433 1434 1435 1436 1437 1439 1441 1443 1445 1447 1449 1451 1453
1487 1487 1483 1484 1484 1483 1481 1479 1478 1475 1472 1468 1465 1463 1460 1456 1453 1450 1447 1444 1441 1438 1436 1434 1432 1430 1430 1430 1429 1429 1430 1431 1432 1433 1434 1436 1437 1439 1441 1443 1445 1447 1449 1450
1489 1489 1487 1485 1484 1483 1481 1479 1477 1475 1472 1468 1465 1462 1459 1455 1451 1448 1445 1442 1440 1437 1435 1433 1431 1429 1429 1428 1428 1428 1428 1429 1430 1431 1432 1434 1436 1437 1439 1441 1443 1445 1446 1448
1494 1491 1488 1487 1486 1483 1481 1480 1478 1474 1471 1467 1464 1461 1458 1454 1450 1448 1445 1442 1439 1437 1435 1433 1431 1429 1428 1428 1427 1427 1427 1428 1428 1429 1431 1432 1434 1436 1437 1439 1441 1443 1444 1446
1497 1495 1492 1489 1489 1487 1484 1480 1477 1474 1470 1467 1463 1459 1456 1454 1450 1447 1444 1442 1439 1437 1435 1433 1431 1430 1429 1428 1427 1427 1427 1427 1427 1428 1429 1431 1432 1434 1436 1437 1439 1440 1442 1444